DIWATA-2B

Last updated on Sun Apr 12 2026 00:03:15 GMT+0000 (Coordinated Universal Time)

1 43678U 18084H 26101.47473963 .00001817 00000+0 15060-3 0 9993 2 43678 98.1050 294.8600 0013950 31.0875 329.1170 15.00136055406216
UTC large
Height (km)
Speed (km/s)
/
Latitude / Longitude
Inclination (degrees)
Orbital Period (minutes)
Azimuth
Elevation
Range (km)
Doppler Factor

Next 0 passes for location: London (51.5072 / 0.1276)

Sorry there are no passes over London.
DIWATA-2B